EHI
0 2 5 6 4 4 4 2 0 0 0 0 0 0 0 0 0 0 0 0 0 1 0 0 0 0 0 0 1 1 1 0 0 0 0 0 0 0 0 0 0 0 0
1 2 3 3 3 4 4 2 0 0 0 0 0 0 0 0 0 0 0 0 0 1 0 0 0 0 0 0 0 0 0 0 0 0 0 0 0 0 0 0 0 0 0
0 1 2 1 1 2 3 3 1 0 0 0 0 0 0 0 0 0 0 0 0 0 0 0 0 0 0 0 0 0 0 0 0 0 0 0 0 0 0 0 0 0 0
0 1 2 2 1 1 3 4 3 2 2 2 1 0 0 0 0 0 0 0 0 0 0 0 0 0 0 0 0 0 0 0 0 0 0 0 0 0 0 0 0 0 0
0 1 2 3 1 2 3 5 5 5 6 4 1 0 0 0 0 0 0 0 0 0 0 0 0 0 0 0 0 0 0 0 0 0 0 0 0 0 0 0 0 0 0
0 0 1 2 3 4 5 5 5 6 6 4 1 0 0 0 0 0 0 0 0 0 0 0 0 0 0 0 0 0 0 0 0 0 0 0 0 0 0 0 0 0 0
0 0 1 2 4 7 7 4 4 4 3 3 2 1 0 0 0 0 0 0 0 0 0 0 0 0 0 0 0 0 0 0 0 0 0 0 0 0 0 0 0 0 0
0 0 1 2 4 6 6 4 4 4 3 3 2 1 0 0 0 0 0 1 1 1 0 0 0 0 0 0 0 0 0 0 0 0 0 0 0 0 0 0 0 0 0
0 0 1 2 3 4 4 3 3 3 3 2 1 1 1 1 1 1 0 1 2 2 1 0 0 0 0 0 0 0 0 0 0 0 0 0 0 0 0 0 0 0 0
0 0 0 1 1 2 2 2 1 1 1 1 0 1 2 1 2 2 1 1 1 1 0 0 0 0 0 0 0 0 0 0 0 0 0 0 0 0 0 0 0 0 0
0 0 0 0 0 1 1 0 0 1 0 0 0 1 1 1 1 3 2 2 1 1 0 0 0 0 0 1 1 0 0 0 0 0 0 0 0 0 0 0 0 0 0
0 0 0 0 0 0 0 0 0 0 0 0 0 0 0 0 0 1 1 1 1 2 2 2 3 2 2 1 1 0 0 0 0 0 0 0 0 0 0 0 0 0 0
0 0 0 0 0 0 0 0 0 0 0 0 0 0 0 0 0 0 0 0 1 2 2 4 5 6 4 1 0 0 0 0 0 0 0 0 0 0 0 0 0 0 0
0 0 0 0 0 0 0 0 0 0 0 0 0 0 0 0 0 0 0 0 0 1 1 2 4 5 4 2 0 0 0 0 0 0 0 0 0 0 0 0 0 0 0
0 0 0 0 0 0 0 0 0 0 0 0 0 0 0 0 1 1 0 0 0 0 0 1 2 2 3 2 0 0 1 0 0 0 0 0 0 0 0 0 0 0 0
0 0 0 0 0 0 0 0 0 0 0 0 0 0 0 0 0 1 1 0 0 0 0 1 1 1 1 1 0 1 1 1 0 0 0 0 0 0 0 0 0 0 0
0 0 0 0 0 0 0 0 0 0 0 0 0 0 0 0 0 0 0 0 0 0 0 0 0 0 0 0 1 2 2 1 0 0 0 0 0 0 0 0 0 0 0
0 0 0 0 0 0 0 0 0 0 0 0 0 0 0 0 0 0 0 0 0 0 0 0 0 0 0 0 1 2 1 0 0 0 0 0 0 0 0 0 0 0 0
0 0 0 0 0 0 0 0 0 0 0 0 0 0 0 0 0 0 0 0 0 0 0 0 0 0 0 0 0 0 0 0 0 0 0 0 0 0 0 0 0 0 0
0 0 0 0 0 0 0 0 0 0 0 0 0 0 0 0 0 0 0 0 0 0 0 0 0 0 0 0 0 0 0 0 0 0 0 0 0 0 0 0 0 0 0
0 0 0 0 0 0 0 0 0 0 0 0 0 0 0 0 0 0 0 0 0 0 1 1 0 0 0 0 0 0 0 0 0 0 0 0 0 0 0 0 0 0 0
0 0 0 0 0 0 0 0 0 0 0 0 0 0 0 0 0 0 0 0 0 0 1 1 0 0 0 0 0 0 0 0 0 0 1 0 0 0 0 0 0 0 0
0 0 0 0 0 0 0 0 0 0 0 0 0 0 0 0 0 0 0 0 0 0 1 1 0 0 0 0 0 0 0 0 0 0 0 0 0 0 0 0 0 0 0
0 0 0 0 0 0 0 0 0 0 0 0 0 0 0 0 0 0 0 0 0 0 0 0 0 0 0 0 0 0 0 0 0 0 0 0 0 0 0 0 0 0 0
0 0 0 0 0 0 0 0 0 0 0 0 0 0 0 0 0 0 0 0 0 0 0 0 0 0 0 0 0 0 0 0 0 0 1 1 1 0 0 0 0 0 0
0 0 0 0 0 0 0 0 0 0 0 0 0 0 0 0 0 0 0 0 0 0 0 0 0 0 0 0 0 0 0 0 0 0 1 2 1 0 0 0 0 0 0
Wind_Speed
5 5 5 5 6 5 6 6 7 7 7 7 7 7 7 7 6 5 4 7 6 7 7 8 8 8 8 8 8 8 9 9 9 9 9 9 9 9 8 8 7 7 7
5 6 6 6 5 5 5 6 7 6 6 6 7 7 7 7 7 6 5 8 8 7 7 8 9 9 9 9 9 9 9 9 10 9 9 9 9 9 8 7 7 6 5
6 6 6 5 5 5 6 5 7 6 6 6 7 8 7 7 7 8 7 5 8 10 9 9 9 9 9 10 9 9 9 10 10 9 9 9 8 8 7 7 6 5 4
7 6 6 6 5 5 5 5 5 5 6 6 6 6 7 7 9 8 7 7 6 7 10 10 9 9 9 10 10 10 10 10 9 10 9 9 8 8 7 6 5 5 4
7 7 6 6 6 5 5 6 5 5 5 5 5 5 6 7 7 8 9 9 8 7 7 10 9 8 9 9 10 11 11 11 10 10 10 10 9 8 7 6 5 4 4
7 7 6 7 6 6 6 6 6 5 5 4 5 5 6 7 7 7 8 7 7 9 8 9 9 9 9 8 10 11 12 12 11 11 11 10 10 9 8 7 5 5 4
6 7 6 6 5 6 7 8 7 7 5 4 4 4 5 8 8 7 7 7 8 8 8 9 8 7 8 10 9 10 12 12 12 12 11 11 10 9 8 7 6 5 4
6 6 6 5 6 6 7 8 8 6 5 6 4 4 4 5 6 9 8 7 9 8 9 10 10 9 7 8 10 11 9 10 12 12 11 11 11 10 9 8 6 5 5
6 6 6 6 6 6 6 7 8 9 6 6 6 5 4 6 4 6 10 9 9 7 8 9 10 10 9 7 9 13 10 9 10 12 12 11 11 11 9 8 7 6 6
6 5 6 7 7 6 7 8 8 8 8 6 6 6 5 2 4 5 6 8 10 9 9 8 9 10 10 8 6 10 13 10 10 11 11 12 12 11 10 9 8 7 7
6 6 6 6 7 6 7 7 7 9 8 8 6 6 6 4 6 4 5 6 7 8 9 9 8 8 9 9 7 10 14 12 10 11 11 11 12 12 11 10 9 8 8
5 6 6 6 6 6 7 7 7 9 9 10 8 7 6 6 6 6 5 6 6 7 8 7 8 7 7 8 10 12 14 13 12 10 10 10 11 12 11 11 10 9 8
6 7 6 6 6 6 7 7 7 8 10 11 10 8 7 7 5 5 5 4 4 4 6 7 8 8 8 8 8 13 13 13 12 11 10 10 10 10 11 11 10 10 9
7 8 7 7 7 6 6 6 6 8 8 9 11 10 8 8 7 7 6 4 4 5 6 7 7 9 8 8 8 13 12 15 13 13 12 11 10 10 9 9 9 9 9
7 8 7 7 6 6 6 6 5 7 7 7 8 9 8 7 7 7 7 6 6 6 7 8 5 8 7 7 9 10 11 15 15 14 13 12 11 10 10 9 8 7 8
8 8 7 7 6 6 6 5 5 5 6 6 6 8 8 7 7 7 8 7 7 6 5 4 5 5 7 7 9 10 9 14 15 14 13 13 12 11 11 10 9 9 8
9 8 7 7 6 6 6 5 5 5 6 6 6 8 8 8 7 7 7 8 7 7 7 4 2 4 7 8 7 7 8 9 9 14 13 13 12 12 12 11 11 10 9
8 8 8 7 6 6 6 5 5 5 5 6 7 7 8 7 9 8 7 9 8 7 7 7 4 5 6 7 8 8 7 6 7 12 13 12 12 12 12 12 11 10 10
8 8 8 8 7 6 5 5 5 5 6 6 6 7 7 7 8 7 9 8 7 7 6 6 6 4 3 5 7 6 7 6 6 9 12 11 12 12 12 12 11 11 10
9 8 8 8 7 7 6 6 6 6 5 6 6 6 7 7 8 9 8 9 8 7 7 6 6 5 5 6 6 7 6 5 5 6 7 8 11 12 12 12 12 11 10
8 8 8 8 7 6 6 8 7 6 5 6 6 6 6 7 8 7 7 8 9 7 7 7 6 6 6 7 7 6 7 6 5 4 6 6 7 7 8 10 11 12 11
8 8 7 7 7 6 9 10 9 7 6 5 5 5 5 7 8 10 10 10 10 10 9 8 6 7 8 8 7 7 7 7 5 5 6 5 5 6 5 5 9 11 12
7 8 7 7 7 7 10 10 10 8 6 5 5 5 4 4 6 7 9 11 12 12 11 9 9 9 9 9 10 10 9 8 5 6 6 5 4 5 5 6 11 12 12
7 7 7 7 7 7 10 11 12 8 5 5 5 5 5 5 5 6 7 8 9 10 10 10 9 9 8 9 10 9 9 7 7 5 5 4 4 4 5 6 10 11 11
7 7 7 7 7 7 9 12 13 6 4 4 4 4 5 5 3 5 7 8 8 7 6 7 7 7 9 11 10 8 9 9 7 4 3 4 5 4 4 4 7 10 9
6 7 6 7 7 7 8 11 12 5 5 4 3 3 3 4 4 5 7 7 7 6 6 7 7 9 11 13 14 11 10 10 7 5 6 6 7 6 4 3 5 7 7
Wind_Direction
259 256 252 249 246 242 232 231 234 230 229 235 235 235 230 225 232 210 164 165 191 200 195 187 182 178 173 167 161 154 151 150 147 145 143 138 134 130 129 128 122 115 110
253 255 256 250 248 243 241 240 238 234 232 231 234 231 239 230 230 216 203 173 186 199 199 193 186 182 178 174 169 162 159 156 152 151 150 146 144 142 141 136 131 126 120
261 256 255 250 243 243 239 235 239 235 228 225 231 234 229 233 237 221 206 201 185 187 197 198 192 188 184 180 176 170 167 163 159 159 157 153 151 149 146 144 140 137 129
267 263 258 253 247 241 238 228 223 221 225 224 228 226 227 217 232 228 213 206 200 186 184 192 193 192 191 187 182 176 172 167 165 165 162 158 157 155 153 149 146 141 136
275 267 262 260 253 242 233 229 219 215 219 225 233 233 241 231 225 224 222 213 196 194 185 169 185 190 194 195 189 183 179 176 176 175 170 166 165 164 161 158 159 158 155
281 275 264 259 257 245 233 227 218 213 215 217 237 238 235 240 233 228 231 218 211 199 196 177 182 185 190 195 195 190 185 184 184 182 179 177 174 171 170 171 173 174 172
289 275 271 264 254 248 242 233 222 216 211 202 216 235 239 238 236 223 229 221 214 203 198 191 197 186 180 189 196 197 195 191 189 188 187 184 181 179 181 182 184 186 183
296 283 271 265 256 253 248 237 225 218 208 194 199 210 223 223 233 227 218 222 220 197 208 202 196 194 194 182 178 190 197 198 198 193 192 189 187 188 189 189 191 189 182
300 292 287 279 270 259 249 238 227 220 213 203 203 203 209 215 199 218 218 213 218 204 206 212 206 197 197 196 173 180 189 196 201 199 198 195 191 190 192 193 193 192 188
304 294 285 278 272 264 257 246 231 226 218 211 208 219 233 236 198 200 212 217 213 210 209 208 215 207 198 199 186 167 176 189 198 203 203 198 193 192 192 192 193 194 193
314 306 296 285 275 266 260 257 252 235 226 219 209 203 216 229 232 216 206 204 210 214 214 210 208 212 204 201 194 177 173 186 194 203 205 198 193 192 192 192 194 195 191
318 318 307 290 280 273 266 260 255 245 236 228 220 211 204 202 210 214 220 208 209 212 213 213 217 209 206 205 202 163 173 185 193 198 200 198 193 193 194 193 193 190 182
324 324 315 300 291 282 276 269 258 250 240 234 228 222 218 217 207 211 222 217 216 208 209 215 218 212 207 208 193 165 179 186 190 192 192 190 188 191 195 193 190 187 183
323 323 315 306 301 291 280 270 263 255 244 237 233 228 223 222 214 208 210 207 213 214 214 217 209 210 209 207 185 176 185 185 188 189 189 187 185 184 184 186 187 187 185
323 324 316 308 303 295 284 275 264 259 255 244 238 232 227 222 219 215 211 209 210 216 219 215 201 209 209 207 168 192 199 181 185 186 184 183 180 178 175 173 173 170 165
330 323 320 315 307 300 291 280 270 265 256 248 241 235 228 222 218 215 212 210 214 219 229 214 203 201 201 202 188 205 201 164 180 181 180 177 177 174 170 165 160 154 154
332 328 325 322 317 307 299 287 277 268 260 253 243 237 231 223 217 214 211 209 212 214 223 216 196 199 197 199 181 193 184 178 176 175 175 173 172 168 165 160 157 154 154
336 332 332 329 325 316 305 294 286 279 272 261 251 243 235 224 218 215 211 211 210 209 214 210 194 197 203 192 180 178 172 171 168 163 166 165 163 161 159 158 155 154 152
338 337 337 335 330 322 312 304 296 286 275 269 258 247 240 231 223 216 212 210 208 207 209 207 196 184 184 177 167 161 160 154 154 150 153 156 158 156 156 154 151 149 147
341 341 340 337 335 331 326 323 309 295 283 274 264 252 246 238 233 223 216 211 205 203 203 201 193 181 173 171 166 160 154 150 149 148 143 145 146 147 150 149 149 148 147
340 341 339 339 339 334 340 335 320 303 288 278 267 255 250 248 251 242 228 213 207 203 199 198 194 185 178 173 175 168 159 146 140 146 138 142 146 148 149 150 150 151 150
340 342 339 340 339 343 342 328 317 308 295 284 275 265 250 235 235 236 238 232 220 210 204 199 198 193 187 178 166 164 159 157 156 162 147 142 149 146 151 147 146 152 152
339 337 338 338 335 344 339 333 327 309 300 293 284 276 264 250 238 235 222 220 220 217 215 210 203 197 186 180 171 171 172 166 150 151 142 136 143 140 135 134 146 153 153
335 330 332 332 329 336 340 333 322 302 298 292 287 281 271 265 255 251 232 222 219 212 210 213 212 202 189 179 178 174 163 141 121 137 144 133 143 136 131 133 143 148 150
326 324 330 328 327 332 346 336 325 308 299 293 287 289 287 272 267 258 243 227 218 209 202 207 204 190 173 170 165 156 154 152 147 151 161 138 141 131 133 140 142 144 145
317 316 321 321 325 325 346 338 331 312 308 307 297 288 289 289 282 256 242 224 211 194 181 174 173 170 169 166 167 173 168 164 152 152 171 153 148 148 145 151 154 160 156